Tracking 35331 objects as of 14-Sep-2026
HD Live streaming from Space Station
objects crossing your sky now

FREGAT DEB


FREGAT DEB is no longer on orbit


NORAD ID: 45927
Int'l Code: 2011-037ER
Launch date: July 18, 2011
Source: Commonwealth of Independent States (former USSR) (CIS)
Launch site: TYURATAM MISSILE AND SPACE COMPLEX (TTMTR)
Decay date: 2021-07-08

Note: This is SATELLITE DEBRIS
Your satellite tracking list
Your tracking list is empty




NASA's NSSDC Master Catalog

Two Line Element Set (TLE):
1 45927U 11037ER  21188.86328691  .13545901  00000-0  75887-1 0  9996
2 45927  51.1428  50.7839 0089465  49.8319 311.0461 15.68354357 48294
Source of the keplerian elements: AFSPC